Weather History for Farmington, MO

Change the Weather History Date:

Saturday, January 19, 2013

  Actual Average Record
Temperature  
Mean Temperature 48 °F -  
Max Temperature 62 °F 39 °F 62 °F (2006)
Min Temperature 35 °F 22 °F 8 °F (2008)
Degree Days  
Heating Degree Days 16    
Moisture  
Dew Point 29 °F    
Average Humidity 53    
Maximum Humidity 70    
Minimum Humidity 31    
Precipitation  
Precipitation 0.00 in - - ()
Sea Level Pressure  
Sea Level Pressure 30.11 in    
Wind  
Wind Speed 12 mph (SW)    
Max Wind Speed 20 mph    
Max Gust Speed 30 mph    
Visibility 10 miles    
Events      
Averages and records for this station are not official NWS values.
T = Trace of Precipitation, MM = Missing Value Source: NWS Daily Summary

Daily Weather History Graph

Daily Weather History Graph

Search for Another Location

Airport:

Trip Planner

Search our weather history database for the weather conditions in past years. The results will help you decide how hot, cold, wet, or windy it might be!

Date:

Astronomy

Jan. 19, 2013 Rise Set
Actual Time 7:14 AM CST 5:11 PM CST
Civil Twilight 6:45 AM CST 5:39 PM CST
Nautical Twilight 6:13 AM CST 6:11 PM CST
Astronomical Twilight 5:42 AM CST 6:43 PM CST
Moon 11:36 AM CST (1/19) 12:50 AM CST (1/19)
Length of Visible Light 10h 53m
Length of Day
9h 57m
First Quarter, 57% of the Moon is Illuminated
Jan 19
First Quarter
Jan 26
Full
Feb 3
Last Quarter
Feb 10
New
Feb 17
First Quarter

Hourly Weather History & Observations

Time (CST) Temp. Windchill Dew Point Humidity Pressure Visibility Wind Dir Wind Speed Gust Speed Precip Events Conditions
12:15 AM 37.4 °F 28.9 °F 28.4 °F 70% 30.20 in 10.0 mi SSW 13.8 mph - N/A   Clear
12:35 AM 37.4 °F 29.3 °F 26.6 °F 65% 30.20 in 10.0 mi SSW 12.7 mph 19.6 mph N/A   Clear
12:55 AM 37.4 °F 28.5 °F 26.6 °F 65% 30.19 in 10.0 mi SSW 15.0 mph - N/A   Clear
1:15 AM 37.4 °F 30.3 °F 26.6 °F 65% 30.20 in 10.0 mi SW 10.4 mph - N/A   Clear
1:35 AM 37.4 °F 29.3 °F 26.6 °F 65% 30.21 in 10.0 mi SSW 12.7 mph 20.7 mph N/A   Clear
1:55 AM 37.4 °F 28.9 °F 26.6 °F 65% 30.21 in 10.0 mi SSW 13.8 mph 19.6 mph N/A   Clear
2:15 AM 37.4 °F 28.5 °F 26.6 °F 65% 30.21 in 10.0 mi SSW 15.0 mph 19.6 mph N/A   Clear
2:35 AM 37.4 °F 28.5 °F 26.6 °F 65% 30.21 in 10.0 mi SSW 15.0 mph 19.6 mph N/A   Clear
2:55 AM 37.4 °F 28.9 °F 26.6 °F 65% 30.20 in 10.0 mi SSW 13.8 mph - N/A   Clear
3:15 AM 37.4 °F 28.5 °F 26.6 °F 65% 30.19 in 10.0 mi SSW 15.0 mph 23.0 mph N/A   Clear
3:35 AM 37.4 °F 28.9 °F 26.6 °F 65% 30.19 in 10.0 mi SSW 13.8 mph 20.7 mph N/A   Clear
3:55 AM 37.4 °F 29.3 °F 26.6 °F 65% 30.18 in 10.0 mi SSW 12.7 mph 20.7 mph N/A   Clear
4:15 AM 37.4 °F 28.2 °F 26.6 °F 65% 30.17 in 10.0 mi SSW 16.1 mph 21.9 mph N/A   Clear
4:35 AM 37.4 °F 28.5 °F 26.6 °F 65% 30.17 in 10.0 mi SSW 15.0 mph 20.7 mph N/A   Clear
4:55 AM 37.4 °F 29.8 °F 26.6 °F 65% 30.17 in 10.0 mi SSW 11.5 mph 20.7 mph N/A   Clear
5:15 AM 37.4 °F 31.4 °F 26.6 °F 65% 30.17 in 10.0 mi SSW 8.1 mph - N/A   Clear
5:35 AM 35.6 °F 29.2 °F 26.6 °F 70% 30.17 in 10.0 mi SSW 8.1 mph - N/A   Clear
5:55 AM 35.6 °F 31.7 °F 26.6 °F 70% 30.16 in 10.0 mi South 4.6 mph - N/A   Clear
6:15 AM 35.6 °F 31.7 °F 26.6 °F 70% 30.17 in 10.0 mi SSW 4.6 mph - N/A   Clear
6:35 AM 35.6 °F - 26.6 °F 70% 30.17 in 10.0 mi Calm Calm - N/A   Clear
6:55 AM 35.6 °F - 26.6 °F 70% 30.17 in 10.0 mi Calm Calm - N/A   Clear
7:15 AM 35.6 °F 32.8 °F 26.6 °F 70% 30.16 in 10.0 mi SSE 3.5 mph - N/A   Clear
7:35 AM 35.6 °F 32.8 °F 24.8 °F 65% 30.16 in 10.0 mi South 3.5 mph - N/A   Clear
7:55 AM 35.6 °F 31.7 °F 26.6 °F 70% 30.16 in 10.0 mi South 4.6 mph - N/A   Clear
8:15 AM 37.4 °F 32.8 °F 26.6 °F 65% 30.15 in 10.0 mi SSW 5.8 mph - N/A   Clear
8:35 AM 39.2 °F 31.6 °F 26.6 °F 61% 30.15 in 10.0 mi SSW 12.7 mph 16.1 mph N/A   Clear
8:55 AM 39.2 °F 31.2 °F 26.6 °F 61% 30.15 in 10.0 mi SSW 13.8 mph - N/A   Clear
9:15 AM 42.8 °F 34.8 °F 26.6 °F 53% 30.15 in 10.0 mi SSW 17.3 mph 25.3 mph N/A   Clear
9:35 AM 42.8 °F 34.8 °F 28.4 °F 57% 30.15 in 10.0 mi SSW 17.3 mph - N/A   Clear
9:55 AM 44.6 °F 37.4 °F 28.4 °F 53% 30.15 in 10.0 mi SSW 16.1 mph 21.9 mph N/A   Clear
10:15 AM 46.4 °F 39.5 °F 28.4 °F 50% 30.14 in 10.0 mi SSW 17.3 mph - N/A   Clear
10:35 AM 48.2 °F - 28.4 °F 46% 30.13 in 10.0 mi SSW 13.8 mph - N/A   Clear
10:55 AM 48.2 °F - 30.2 °F 50% 30.12 in 10.0 mi SSW 15.0 mph 19.6 mph N/A   Clear
11:15 AM 51.8 °F - 30.2 °F 44% 30.10 in 10.0 mi SW 19.6 mph 24.2 mph N/A   Clear
11:35 AM 53.6 °F - 30.2 °F 41% 30.09 in 10.0 mi SW 15.0 mph 19.6 mph N/A   Clear
11:55 AM 53.6 °F - 30.2 °F 41% 30.07 in 10.0 mi SW 16.1 mph 20.7 mph N/A   Clear
12:15 PM 55.4 °F - 30.2 °F 38% 30.05 in 10.0 mi SW 12.7 mph 21.9 mph N/A   Clear
12:35 PM 57.2 °F - 30.2 °F 36% 30.05 in 10.0 mi SSW 11.5 mph 21.9 mph N/A   Clear
12:55 PM 57.2 °F - 30.2 °F 36% 30.04 in 10.0 mi SSW 12.7 mph 23.0 mph N/A   Clear
1:15 PM 60.8 °F - 32.0 °F 34% 30.02 in 10.0 mi SW 16.1 mph 26.5 mph N/A   Clear
1:35 PM 60.8 °F - 32.0 °F 34% 30.01 in 10.0 mi SSW 17.3 mph 25.3 mph N/A   Clear
1:55 PM 60.8 °F - 33.8 °F 36% 30.00 in 10.0 mi SSW 19.6 mph 24.2 mph N/A   Clear
2:15 PM 62.6 °F - 32.0 °F 32% 30.00 in 10.0 mi SW 18.4 mph 23.0 mph N/A   Clear
2:35 PM 62.6 °F - 32.0 °F 32% 29.99 in 10.0 mi SW 18.4 mph 29.9 mph N/A   Clear
2:55 PM 62.6 °F - 32.0 °F 32% 29.99 in 10.0 mi SSW 18.4 mph 24.2 mph N/A   Clear
3:15 PM 62.6 °F - 32.0 °F 32% 29.99 in 10.0 mi SW 15.0 mph 21.9 mph N/A   Clear
3:35 PM 62.6 °F - 32.0 °F 32% 30.00 in 10.0 mi SW 11.5 mph 24.2 mph N/A   Clear
3:55 PM 62.6 °F - 32.0 °F 32% 30.00 in 10.0 mi SW 11.5 mph - N/A   Clear
4:15 PM 62.6 °F - 32.0 °F 32% 30.00 in 10.0 mi SW 12.7 mph 20.7 mph N/A   Clear
4:35 PM 60.8 °F - 32.0 °F 34% 30.01 in 10.0 mi SW 12.7 mph 19.6 mph N/A   Clear
4:55 PM 60.8 °F - 30.2 °F 31% 30.01 in 10.0 mi SW 11.5 mph - N/A   Clear
5:15 PM 57.2 °F - 30.2 °F 36% 30.02 in 10.0 mi SSW 11.5 mph - N/A   Clear
5:35 PM 55.4 °F - 30.2 °F 38% 30.03 in 10.0 mi SW 10.4 mph - N/A   Clear
5:55 PM 55.4 °F - 30.2 °F 38% 30.03 in 10.0 mi SW 9.2 mph - N/A   Clear
6:15 PM 55.4 °F - 32.0 °F 41% 30.04 in 10.0 mi SW 8.1 mph - N/A   Clear
6:35 PM 53.6 °F - 32.0 °F 44% 30.05 in 10.0 mi SW 8.1 mph - N/A   Clear
6:55 PM 51.8 °F - 30.2 °F 44% 30.06 in 10.0 mi SSW 5.8 mph - N/A   Clear
7:15 PM 50.0 °F - 33.8 °F 54% 30.07 in 10.0 mi SSW 6.9 mph - N/A   Clear
7:35 PM 50.0 °F - 32.0 °F 50% 30.08 in 10.0 mi SW 4.6 mph - N/A   Clear
7:55 PM 48.2 °F - 33.8 °F 58% 30.09 in 10.0 mi SSW 4.6 mph - N/A   Clear
8:15 PM 48.2 °F - 33.8 °F 58% 30.09 in 10.0 mi South 3.5 mph - N/A   Clear
8:35 PM 48.2 °F - 33.8 °F 58% 30.10 in 10.0 mi Calm Calm - N/A   Clear
8:55 PM 48.2 °F - 32.0 °F 54% 30.11 in 10.0 mi SW 4.6 mph - N/A   Clear
9:15 PM 44.6 °F 42.2 °F 32.0 °F 61% 30.11 in 10.0 mi WSW 4.6 mph - N/A   Clear
9:35 PM 42.8 °F 40.1 °F 32.0 °F 66% 30.11 in 10.0 mi West 4.6 mph - N/A   Clear
9:55 PM 46.4 °F 43.5 °F 30.2 °F 53% 30.12 in 10.0 mi West 5.8 mph - N/A   Clear
10:15 PM 48.2 °F - 30.2 °F 50% 30.12 in 10.0 mi West 4.6 mph - N/A   Clear
10:35 PM 48.2 °F - 30.2 °F 50% 30.12 in 10.0 mi West 5.8 mph - N/A   Clear
10:55 PM 48.2 °F - 32.0 °F 54% 30.13 in 10.0 mi West 5.8 mph - N/A   Clear
11:15 PM 48.2 °F - 30.2 °F 50% 30.14 in 10.0 mi WNW 8.1 mph - N/A   Clear
11:35 PM 48.2 °F - 32.0 °F 54% 30.14 in 10.0 mi WNW 8.1 mph - N/A   Clear
11:55 PM 48.2 °F - 30.2 °F 50% 30.15 in 10.0 mi NW 9.2 mph - N/A   Clear